Terug naar catalogus

STARLINK-30435

ActiefCommunicatieVLEO
NORAD 57842·PAYLOAD·🇺🇸 United States

Gelanceerd Sep 12, 2023 vanaf Vandenberg Space Force Base

Loading…

Volgende Passages (komende 24 uur)

TLE

VersSource: CelesTrak SupGP

Epoch: Sep 15, 2026, 02:08 UTC

1 57842C 23141C   26258.08937500  .00047438  00000+0  15253-2 0  2583
2 57842  53.1571 123.0972 0001238  77.0288 214.8372 15.31681773    10

Volg STARLINK-30435 in realtime met AllMySat

Download on the App Store